Overview Statistics Trail Chart Weather Telemetry Raw packets
 

This is the latest recevied weather packets stored in our database for station/object KC9TVS-13. If no packets are shown the sender has not sent any weather packets the latest 10 day(s).

<< 105 106 107 108 109 110 111 >>
Time Temp. Humidity Pressure Rain* Wind** Luminosity Snow
1787780382 31.11° C 73% 1014 hPa 0 mm - 591 W/m² -
1787780082 30.56° C 75% 1014.1 hPa 0 mm - 427 W/m² -
1787779784 30° C 76% 1014.3 hPa 0 mm - 339 W/m² -
1787779486 29.44° C 77% 1014.5 hPa 0 mm - 271 W/m² -
1787779183 29.44° C 77% 1014.5 hPa 0 mm - 169 W/m² -
1787778884 29.44° C 78% 1014.4 hPa 0 mm - 130 W/m² -
1787778582 29.44° C 78% 1014.4 hPa 0 mm - 118 W/m² -
1787778280 29.44° C 77% 1014.4 hPa 0 mm - 113 W/m² -
1787777980 29.44° C 77% 1014.3 hPa 0 mm - 121 W/m² -
1787777681 29.44° C 76% 1014.2 hPa 0 mm - 130 W/m² -
1787777381 30° C 76% 1014.4 hPa 0 mm - 137 W/m² -
1787777080 29.44° C 77% 1014.4 hPa 0 mm - 141 W/m² -
1787776780 29.44° C 76% 1014.3 hPa 0 mm - 134 W/m² -
1787776480 29.44° C 77% 1014.6 hPa 0 mm - 123 W/m² -
1787776181 29.44° C 77% 1014.6 hPa 0 mm - 98 W/m² -
1787775881 29.44° C 76% 1014.7 hPa 0 mm - 98 W/m² -
1787775581 29.44° C 77% 1014.6 hPa 0 mm - 105 W/m² -
1787775281 30° C 77% 1014.7 hPa 0 mm - 116 W/m² -
1787774981 30° C 76% 1014.6 hPa 0 mm - 139 W/m² -
1787774680 30° C 76% 1014.7 hPa 0 mm - 142 W/m² -
1787774378 30° C 76% 1014.9 hPa 0 mm - 148 W/m² -
1787774082 30° C 75% 1015 hPa 0 mm - 153 W/m² -
1787773780 30.56° C 76% 1015 hPa 0 mm - 158 W/m² -
1787773481 30.56° C 74% 1015 hPa 0 mm - 160 W/m² -
1787773178 30.56° C 74% 1014.8 hPa 0 mm - 160 W/m² -

* Rain latest hour (hover to see other rain measurements)
** Current wind speed in m/s (hover to see current wind gust speed)